This is the latest recevied weather packets stored in our database for station/object KM6YFK-13. If no packets are shown the sender has not sent any weather packets the latest 10 day(s).
| Time | Temp. | Humidity | Pressure | Rain* | Wind** | Luminosity | Snow |
|---|---|---|---|---|---|---|---|
| 1777985311 | 23.89° C | 61% | 1016.7 hPa | 0 mm | - | 337 W/m² | - |
| 1777985011 | 23.89° C | 61% | 1016.7 hPa | 0 mm | - | 319 W/m² | - |
| 1777984710 | 23.33° C | 63% | 1016.6 hPa | 0 mm | - | 300 W/m² | - |
| 1777984410 | 23.33° C | 63% | 1016.7 hPa | 0 mm | - | 283 W/m² | - |
| 1777984108 | 23.33° C | 65% | 1016.6 hPa | 0 mm | - | 265 W/m² | - |
| 1777983810 | 22.78° C | 67% | 1016.5 hPa | 0 mm | - | 248 W/m² | - |
| 1777983510 | 22.22° C | 69% | 1016.4 hPa | 0 mm | - | 231 W/m² | - |
| 1777983209 | 21.67° C | 76% | 1016.4 hPa | 0 mm | - | 213 W/m² | - |
| 1777982908 | 21.11° C | 84% | 1016.4 hPa | 0 mm | - | 196 W/m² | - |
| 1777982608 | 20.56° C | 89% | 1016.5 hPa | 0 mm | - | 177 W/m² | - |
| 1777982309 | 19.44° C | 89% | 1016.4 hPa | 0 mm | - | 158 W/m² | - |
| 1777982010 | 18.89° C | 90% | 1016.4 hPa | 0 mm | - | 142 W/m² | - |
| 1777981710 | 18.33° C | 91% | 1016.4 hPa | 0 mm | - | 127 W/m² | - |
| 1777981410 | 18.33° C | 92% | 1016.4 hPa | 0 mm | - | 112 W/m² | - |
| 1777981109 | 17.78° C | 93% | 1016.3 hPa | 0 mm | - | 97 W/m² | - |
| 1777980809 | 17.22° C | 94% | 1016.2 hPa | 0 mm | - | 83 W/m² | - |
| 1777980510 | 17.22° C | 94% | 1016 hPa | 0 mm | - | 39 W/m² | - |
| 1777980209 | 17.22° C | 94% | 1016.1 hPa | 0 mm | - | 33 W/m² | - |
| 1777979908 | 16.67° C | 94% | 1016.1 hPa | 0 mm | - | 30 W/m² | - |
| 1777979608 | 16.67° C | 95% | 1016 hPa | 0 mm | - | 27 W/m² | - |
| 1777979307 | 16.67° C | 94% | 1015.9 hPa | 0 mm | - | 25 W/m² | - |
| 1777979008 | 16.67° C | 94% | 1015.9 hPa | 0 mm | - | 19 W/m² | - |
| 1777978709 | 16.67° C | 94% | 1015.9 hPa | 0 mm | - | 15 W/m² | - |
| 1777978408 | 16.67° C | 94% | 1015.9 hPa | 0 mm | - | 11 W/m² | - |
| 1777978111 | 16.67° C | 94% | 1015.8 hPa | 0 mm | - | 7 W/m² | - |
* Rain latest hour (hover to see other rain measurements)
** Current wind speed in m/s (hover to see current wind gust speed)